Content
SEND FEEDBACK

Daily
Averages
Monthly
Summary
France

OISSEL, FRANCE


Home > Europe > France
Elevation: 515 feet     Latitude: 49 22N     Longitude: 001 10E

WEATHER
 
SELECT A DAY
Number of Records: 172,223;   Date Range: 7/1/96 - 7/9/14
 
SHARE

PRINT THIS DATA

[ ← Previous Day ]
WEATHER ALMANAC - JANUARY 31, 2013
[ Next Day → ]
[ °C ]   °F
Weather ElementAverageHighLow
Temperature45.9 °F51.8 °F (2:00 pm)39.2 °F (3:30 am)
Dewpoint40.3 °F45 °F (1:00 pm)35.6 °F (4:00 am)
Humidity80.4 %93 % (3:30 am)63 % (7:00 pm)
Barometer30.09 in30.21 in (1:00 am)30.04 in (9:30 am)
Wind Speed16.1 mph25.3 mph (2:30 pm)
Wind Gust39.1 mph (2:30 pm)
Weather ElementAverage
Visibility6.9 mi
Wind DirectionWSW (246.9 °)

Weather ElementTotal
Precipitation---
Heating Degree Days19.5 (Base 65)
Averaged from 51 records on January 31, 2013
WEATHER CONDITIONS BREAKOUT
WIND DIRECTION BREAKOUT
WEATHER BY HOUR - JANUARY 31, 2013
[ °C ]   °F
Local TimeTemperatureDewpointHumidityBarometerVisibilityWind DirectionWind SpeedGust SpeedPrecipitationEventsConditions
12:30 AM44.6 °F39.2 °F81 %30.18 in6.2 miWSW (250°)17.3 mphPartly Cloudy
1:00 AM44.0 °F39.0 °F76 %30.21 in11.0 miWest (260°)18.4 mphClear
1:00 AM44.6 °F39.2 °F81 %30.18 in6.2 miWest (260°)18.4 mphPartly Cloudy
1:30 AM44.6 °F39.2 °F81 %30.18 in6.2 miWest (260°)17.3 mph
2:00 AM44.6 °F37.4 °F76 %30.18 in6.2 miWest (260°)17.3 mph
2:30 AM42.8 °F37.4 °F81 %30.18 in6.2 miWSW (250°)13.8 mph
3:00 AM41.0 °F37.4 °F87 %30.18 in6.2 miWSW (240°)11.5 mph
3:30 AM39.2 °F37.4 °F93 %30.18 in6.2 miSW (230°)10.4 mph
4:00 AM39.2 °F35.6 °F87 %30.15 in6.2 miSW (220°)9.2 mph
4:30 AM39.2 °F35.6 °F87 %30.15 in6.2 miSW (220°)10.4 mph
5:00 AM39.2 °F35.6 °F87 %30.12 in6.2 miSSW (210°)5.8 mphMostly Cloudy
5:30 AM39.2 °F37.4 °F93 %30.12 in6.2 miSSW (200°)11.5 mph
6:00 AM39.2 °F37.4 °F93 %30.09 in6.2 miSSW (210°)13.8 mph
6:30 AM39.2 °F37.4 °F93 %30.09 in6.2 miSSW (210°)12.7 mph
7:00 AM40.0 °F38.0 °F88 %30.12 in11.0 miSSW (210°)15.0 mphClear
7:00 AM41.0 °F37.4 °F87 %30.09 in6.2 miSSW (210°)15.0 mphMostly Cloudy
7:30 AM41.0 °F37.4 °F87 %30.06 in6.2 miSSW (210°)15.0 mphMostly Cloudy
8:00 AM41.0 °F39.2 °F93 %30.06 in6.2 miSSW (210°)17.3 mphMostly Cloudy
8:30 AM41.0 °F39.2 °F93 %30.06 in6.2 miSW (220°)19.6 mphMostly Cloudy
9:00 AM42.8 °F39.2 °F87 %30.06 in6.2 miSW (220°)18.4 mphPartly Cloudy
9:30 AM44.6 °F41.0 °F87 %30.04 in6.2 miSW (220°)20.7 mphScattered Clouds
10:00 AM46.4 °F41.0 °F81 %30.04 in6.2 miSW (220°)19.6 mphMostly Cloudy
10:30 AM48.2 °F42.8 °F82 %30.04 in6.2 miSW (230°)23.0 mphOvercast
11:00 AM48.2 °F42.8 °F82 %30.04 in6.2 miWSW (240°)20.7 mphOvercast
11:30 AM48.2 °F42.8 °F82 %30.06 in6.2 miWSW (250°)20.7 mph33.4 mphRainLight Rain
12:00 PM50.0 °F44.6 °F82 %30.06 in6.2 miWSW (250°)19.6 mphOvercast
12:30 PM50.0 °F44.6 °F82 %30.06 in6.2 miWSW (250°)19.6 mphOvercast
1:00 PM51.0 °F45.0 °F73 %30.07 in31.0 miWest (270°)18.4 mphClear
1:00 PM50.0 °F44.6 °F82 %30.04 in6.2 miWest (270°)18.4 mphOvercast
1:30 PM50.0 °F44.6 °F82 %30.04 in6.2 miWest (260°)19.6 mph31.1 mphOvercast
2:00 PM51.8 °F44.6 °F76 %30.04 in6.2 miWest (260°)19.6 mphOvercast
2:30 PM51.8 °F44.6 °F76 %30.04 in6.2 miWest (280°)25.3 mph39.1 mphMostly Cloudy
3:00 PM51.8 °F41.0 °F67 %30.04 in6.2 miWest (280°)19.6 mphOvercast
3:30 PM51.8 °F41.0 °F67 %30.06 in6.2 miWest (280°)23.0 mph36.8 mphMostly Cloudy
4:00 PM50.0 °F41.0 °F71 %30.06 in6.2 miWest (280°)19.6 mphOvercast
4:30 PM50.0 °F41.0 °F71 %30.06 in6.2 miWest (280°)17.3 mphOvercast
5:00 PM50.0 °F41.0 °F71 %30.06 in6.2 miWest (280°)17.3 mph29.9 mphOvercast
5:30 PM50.0 °F41.0 °F71 %30.06 in6.2 miWest (270°)13.8 mphOvercast
6:00 PM50.0 °F41.0 °F71 %30.06 in6.2 miWest (260°)11.5 mphOvercast
6:30 PM48.2 °F41.0 °F76 %30.06 in6.2 miWest (260°)13.8 mphMostly Cloudy
7:00 PM49.0 °F40.0 °F63 %30.10 in9.0 miWest (270°)12.7 mphClear
7:00 PM48.2 °F41.0 °F76 %30.06 in6.2 miWest (270°)12.7 mphOvercast
7:30 PM48.2 °F39.2 °F71 %30.09 in6.2 miWest (260°)15.0 mphMostly Cloudy
8:00 PM46.4 °F39.2 °F76 %30.06 in6.2 miWSW (250°)15.0 mphMostly Cloudy
8:30 PM46.4 °F41.0 °F81 %30.06 in6.2 miWSW (250°)15.0 mphOvercast
9:00 PM48.2 °F41.0 °F76 %30.06 in6.2 miWest (260°)13.8 mphMostly Cloudy
9:30 PM48.2 °F41.0 °F76 %30.06 in6.2 miWest (260°)13.8 mphOvercast
10:00 PM48.2 °F41.0 °F76 %30.06 in6.2 miWest (260°)13.8 mphOvercast
10:30 PM46.4 °F41.0 °F81 %30.06 in6.2 miWest (260°)13.8 mphOvercast
11:00 PM46.4 °F41.0 °F81 %30.06 in6.2 miWSW (250°)12.7 mphOvercast
11:30 PM46.4 °F41.0 °F81 %30.04 in6.2 miWSW (250°)11.5 mphOvercast
Hourly data recorded from LFOP, located miles away from Oissel, France







STORIES FROM OUR PARTNERS